Regional Weather Roundup
Issued by NWS

Home | Current Version | Previous Version | Graphics & Text | Print | Product List | Glossary Off
Versions: 1 2 3 4 5 6 7 8 9 10 11 12 13 14 15 16 17 18 19 20 21 22 23 24 25 26 27 28 29 30 31 32 33 34 35 36 37 38 39 40 41 42 43 44 45 46 47 48 49 50

460
ASUS43 KTOP 301059
RWRKS

WEATHER ROUNDUP FOR KANSAS
NATIONAL WEATHER SERVICE GOODLAND KS
600 AM CDT SAT APR 30 2016

NOTE:  "FAIR" INDICATES FEW OR NO CLOUDS BELOW 12,000 FEET WITH NO
SIGNIFICANT WEATHER AND/OR OBSTRUCTIONS TO VISIBILITY.

KSZ001>006-013>018-027>032-041>047-301200-
NORTHWEST KANSAS

CITY           SKY/WX    TMP DP  RH WIND       PRES   REMARKS
GOODLAND       CLOUDY    32  32 100 N14       29.78F FOG     WCI  22
HAYS           CLOUDY    43  36  75 NW10      29.72S
HILL CITY      LGT RAIN  42  41  96 NW10      29.74S FOG
RUSSELL        CLOUDY    45  45 100 NW9       29.69S FOG
$$

KSZ061>065-074>080-084>089-301200-
SOUTHWEST KANSAS

CITY           SKY/WX    TMP DP  RH WIND       PRES   REMARKS
DODGE CITY     CLOUDY    37  35  92 NW16      29.75F WCI  28
ELKHART          N/A     38  33  82 NW13        N/A  WCI  30
GARDEN CITY    CLOUDY    36  34  92 NW10      29.77F WCI  28
GREAT BEND     CLOUDY    45  37  76 NW10      29.72S
LIBERAL        PTCLDY    37  32  81 NW9       29.79S
$$

KSZ066>073-081>083-090>101-301200-
SOUTHEAST KANSAS

CITY           SKY/WX    TMP DP  RH WIND       PRES   REMARKS
CHANUTE        CLOUDY    61  59  93 S5        29.62F
COFFEYVILLE    CLOUDY    63  61  93 SW8       29.64S
HUTCHINSON     CLOUDY    49  47  93 W13       29.69S
MEDICINE LODGE   N/A     46  44  93 NW8       29.73R
NEWTON         CLOUDY    50  45  81 NW8       29.70R
PARSONS        CLOUDY    63  62  97 S7        29.64S
WICHITA INTL   CLOUDY    51  49  92 NW8       29.68S
WICHITA JABRA  CLOUDY    50  50 100 NW8       29.68R
WINFIELD       CLOUDY    52  50  93 W9        29.71R
$$

KSZ007>012-019>026-033>040-048>060-102>105-301200-
NORTHEAST KANSAS

CITY           SKY/WX    TMP DP  RH WIND       PRES   REMARKS
CONCORDIA      CLOUDY    46  45  96 N5        29.67F
EMPORIA        CLOUDY    54  52  93 W10       29.63R
LAWRENCE       CLOUDY    56  55  97 E9        29.63F
MANHATTAN      CLOUDY    52  49  89 N3        29.63F
OLATHE IND     CLOUDY    59  57  93 SE17      29.64F
OLATHE EXE     CLOUDY    58  57  97 SE13G18   29.64F
SALINA         CLOUDY    50  49  96 NW7       29.68S FOG
TOPEKA BILLARD LGT RAIN  55  54  96 NE5       29.62F FOG
TOPEKA FORBES  LGT RAIN  60  58  92 SE10      29.61F
$$




USA.gov is the U.S. government's official web portal to all federal, state and local government web resources and services.